UAL8185 KSFO-PHNL

Flight info

Callsign UAL8185
Flight time N/A
Altitude 36000
Route GNNRR3 BEBOP R464 BEKME/N0443F380 R464 BITTA MAGGI3
Aircraft A320/M-SDE3FGHIRWY/LB1

Departure

Time N/A
Airport San Francisco International Airport (KSFO)

Arrival

Time 2026-05-04 07:08
Airport Daniel K. Inouye International Airport (PHNL)
Time Latitude Longitude Altitude Speed Heading
2026-05-04 06:44 22.13069 -156.59033 32682 ft 423 kts 233°
2026-05-04 06:44 22.11199 -156.61456 32103 ft 424 kts 233°
2026-05-04 06:44 22.09296 -156.63922 31438 ft 426 kts 233°
2026-05-04 06:45 22.07416 -156.66357 30725 ft 428 kts 233°
2026-05-04 06:45 22.05494 -156.68849 29987 ft 431 kts 233°
2026-05-04 06:45 22.03597 -156.71304 29469 ft 429 kts 233°
2026-05-04 06:45 22.01701 -156.73758 28961 ft 426 kts 232°
2026-05-04 06:46 21.99812 -156.76202 28468 ft 422 kts 232°
2026-05-04 06:46 21.97954 -156.78603 28011 ft 418 kts 232°
2026-05-04 06:46 21.96083 -156.81020 27551 ft 414 kts 232°
2026-05-04 06:46 21.94258 -156.83377 27108 ft 410 kts 232°
2026-05-04 06:48 21.81847 -156.99391 23646 ft 389 kts 231°
2026-05-04 06:48 21.80110 -157.01630 23144 ft 386 kts 231°
2026-05-04 06:49 21.78412 -157.03818 22647 ft 383 kts 231°
2026-05-04 06:50 21.66739 -157.18832 19213 ft 367 kts 231°
2026-05-04 06:51 21.65093 -157.20947 18721 ft 365 kts 232°
2026-05-04 06:51 21.63472 -157.23030 18243 ft 363 kts 231°
2026-05-04 06:51 21.61853 -157.25108 17822 ft 361 kts 232°
2026-05-04 06:51 21.60261 -157.27153 17468 ft 361 kts 231°
2026-05-04 06:52 21.58637 -157.29237 17080 ft 359 kts 231°
2026-05-04 06:52 21.57051 -157.31274 16684 ft 356 kts 231°
2026-05-04 06:52 21.55463 -157.33310 16279 ft 354 kts 231°
2026-05-04 06:52 21.53881 -157.35338 15877 ft 353 kts 231°
2026-05-04 06:53 21.52321 -157.37337 15476 ft 351 kts 231°
2026-05-04 06:53 21.50755 -157.39342 15073 ft 349 kts 231°
2026-05-04 06:53 21.49193 -157.41344 14669 ft 347 kts 231°
2026-05-04 06:53 21.47646 -157.43324 14267 ft 345 kts 231°
2026-05-04 06:54 21.46105 -157.45297 13864 ft 344 kts 231°
2026-05-04 06:54 21.44579 -157.47247 13461 ft 342 kts 231°
2026-05-04 06:54 21.43060 -157.49190 13047 ft 340 kts 231°
2026-05-04 06:54 21.41547 -157.51123 12620 ft 338 kts 231°
2026-05-04 06:55 21.40021 -157.53070 12148 ft 338 kts 231°
2026-05-04 06:55 21.38514 -157.54994 11675 ft 337 kts 230°
2026-05-04 06:55 21.37013 -157.56909 11196 ft 336 kts 230°
2026-05-04 06:55 21.35515 -157.58821 10726 ft 335 kts 230°
2026-05-04 06:56 21.34012 -157.60736 10249 ft 335 kts 230°
2026-05-04 06:57 21.24555 -157.72878 8488 ft 283 kts 231°
2026-05-04 06:58 21.23338 -157.74522 8158 ft 283 kts 231°
2026-05-04 06:58 21.22116 -157.76169 7824 ft 282 kts 231°
2026-05-04 06:58 21.20893 -157.77809 7497 ft 282 kts 231°
2026-05-04 06:58 21.19690 -157.79437 7156 ft 281 kts 234°
2026-05-04 06:59 21.18870 -157.81323 6791 ft 281 kts 259°
2026-05-04 06:59 21.18825 -157.83403 6459 ft 278 kts 275°
2026-05-04 06:59 21.19006 -157.85466 6119 ft 280 kts 276°
2026-05-04 06:59 21.19195 -157.87535 5646 ft 285 kts 276°
2026-05-04 07:01 21.20227 -158.00888 3253 ft 211 kts 276°
2026-05-04 07:01 21.20337 -158.02400 3120 ft 194 kts 276°
2026-05-04 07:02 21.20436 -158.03767 3062 ft 177 kts 277°
2026-05-04 07:02 21.20532 -158.05067 3013 ft 174 kts 277°
2026-05-04 07:02 21.20640 -158.06352 2963 ft 173 kts 284°
2026-05-04 07:02 21.21163 -158.07448 2876 ft 162 kts 325°
2026-05-04 07:03 21.22123 -158.07932 2824 ft 143 kts
2026-05-04 07:03 21.23046 -158.07809 2764 ft 133 kts 28°
2026-05-04 07:03 21.23789 -158.07222 2727 ft 134 kts 53°
2026-05-04 07:03 21.24182 -158.06308 2687 ft 137 kts 78°
2026-05-04 07:04 21.24119 -158.05289 2647 ft 139 kts 98°
2026-05-04 07:04 21.23963 -158.04279 2605 ft 136 kts 86°
2026-05-04 07:04 21.24198 -158.03308 2534 ft 137 kts 61°
2026-05-04 07:04 21.24741 -158.02451 2344 ft 137 kts 56°
2026-05-04 07:05 21.25302 -158.01623 2153 ft 136 kts 55°
2026-05-04 07:05 21.25862 -158.00813 1975 ft 136 kts 55°
2026-05-04 07:05 21.26430 -158.00000 1790 ft 136 kts 55°
2026-05-04 07:05 21.27000 -157.99185 1601 ft 135 kts 54°
2026-05-04 07:06 21.28126 -157.97584 1232 ft 134 kts 54°
2026-05-04 07:06 21.28688 -157.96790 1058 ft 134 kts 54°
2026-05-04 07:06 21.29249 -157.95993 876 ft 133 kts 54°
2026-05-04 07:07 21.29819 -157.95197 704 ft 133 kts 53°
2026-05-04 07:08 21.32875 -157.90858 31 ft 36 kts 53°
2026-05-04 07:09 21.32991 -157.90730 30 ft 16 kts 357°
2026-05-04 07:09 21.33033 -157.90761 30 ft 0 kts 298°
2026-05-04 07:10 21.33034 -157.90764 30 ft 0 kts 297°
2026-05-04 07:10 21.33037 -157.90771 31 ft 2 kts 286°
2026-05-04 07:12 21.32873 -157.91237 36 ft 16 kts 232°
2026-05-04 07:12 21.32817 -157.91316 35 ft 13 kts 232°
2026-05-04 07:12 21.32838 -157.91357 36 ft 8 kts 350°
2026-05-04 07:12 21.32885 -157.91357 36 ft 5 kts 359°
2026-05-04 07:13 21.32901 -157.91357 36 ft 0 kts 359°